START_TIME,STEP,MOV.,H8,t_acc.,H43,t_acc.,M25,t_acc.,H9,t_acc.
1979-07-04 15:00:30.290 ,1,0,0.,12.0,0.,12.0,0.,12.0,0.,12.0
1979-07-04 15:00:42.290 ,1,0,0.,12.0,0.,12.0,0.,12.0,0.,12.0
1979-07-04 15:00:54.290 ,2,0,0.,12.0,0.,12.0,0.,12.0,0.,12.0
1979-07-04 15:01:06.290 ,2,0,0.,12.0,0.,12.0,0.,12.0,0.,12.0
1979-07-04 15:01:18.290 ,2,0,0.,12.0,0.,12.0,0.,12.0,0.,12.0
1979-07-04 15:01:30.290 ,2,0,0.,12.0,0.,12.0,0.,12.0,0.,12.0
1979-07-04 15:01:42.290 ,3,0,0.,12.0,0.,12.0,0.,12.0,0.,12.0
1979-07-04 15:01:54.290 ,3,0,0.,12.0,0.,12.0,0.,12.0,0.,12.0
1979-07-04 15:02:06.290 ,3,0,0.,12.0,0.,12.0,0.,12.0,0.,12.0
1979-07-04 15:02:18.290 ,3,0,0.,12.0,0.,12.0,0.,12.0,0.,12.0
1979-07-04 15:02:30.290 ,4,0,0.,12.0,0.,12.0,0.,12.0,0.,12.0
1979-07-04 15:02:42.290 ,4,0,0.,12.0,0.,12.0,0.,12.0,0.,12.0
1979-07-04 15:02:54.290 ,4,0,0.,12.0,0.,12.0,0.,12.0,0.,12.0
1979-07-04 15:03:06.290 ,4,0,0.,12.0,0.,12.0,0.,12.0,0.,12.0
1979-07-04 15:03:18.290 ,5,0,0.,12.0,0.,12.0,0.,12.0,0.,12.0
1979-07-04 15:03:30.290 ,5,0,0.,12.0,0.,12.0,0.,12.0,0.,12.0
1979-07-04 15:03:42.290 ,5,0,0.,12.0,0.,12.0,0.,12.0,0.,12.0
1979-07-04 15:03:54.290 ,5,0,0.,12.0,0.,12.0,0.,12.0,0.,12.0
1979-07-04 15:04:06.290 ,6,0,0.,12.0,0.,12.0,0.,12.0,0.,12.0
1979-07-04 15:04:18.290 ,6,0,0.,12.0,0.,12.0,0.,12.0,0.,12.0
1979-07-04 15:04:30.290 ,6,0,0.,12.0,0.,12.0,0.,12.0,0.,12.0
1979-07-04 15:04:42.290 ,6,0,0.,12.0,0.,12.0,0.,12.0,0.,12.0
1979-07-04 15:04:54.290 ,7,0,0.,12.0,0.,12.0,0.,12.0,0.,12.0
1979-07-04 15:05:06.290 ,7,0,0.,12.0,0.,12.0,0.,12.0,0.,12.0
1979-07-04 15:05:18.290 ,7,0,0.,12.0,0.,12.0,0.,12.0,0.,12.0
1979-07-04 15:05:30.290 ,7,0,0.,12.0,0.,12.0,0.,12.0,0.,12.0
1979-07-04 15:05:42.290 ,7,0,0.,12.0,0.,12.0,0.,12.0,0.,12.0
1979-07-04 15:05:54.290 ,7,0,0.,12.0,0.,12.0,0.,12.0,0.,12.0
1979-07-04 15:06:06.290 ,7,0,0.,12.0,0.,12.0,0.,12.0,0.,12.0
1979-07-04 15:06:18.290 ,7,0,0.,12.0,0.,12.0,0.,12.0,0.,12.0
1979-07-04 15:06:30.290 ,6,0,0.,12.0,0.,12.0,0.,12.0,0.,12.0
1979-07-04 15:06:42.290 ,6,0,0.,12.0,0.,12.0,0.,12.0,0.,12.0
1979-07-04 15:06:54.290 ,6,0,0.,12.0,0.,12.0,0.,12.0,0.,12.0
1979-07-04 15:07:06.290 ,6,0,0.,12.0,0.,12.0,0.,12.0,0.,12.0
1979-07-04 15:07:18.290 ,5,0,0.,12.0,0.,12.0,0.,12.0,0.,12.0
1979-07-04 15:07:30.290 ,5,0,0.,12.0,0.,12.0,0.,12.0,0.,12.0
1979-07-04 15:07:42.290 ,5,0,0.,12.0,0.,12.0,0.,12.0,0.,12.0
1979-07-04 15:07:54.290 ,5,0,0.,12.0,0.,12.0,0.,12.0,0.,12.0
1979-07-04 15:08:06.290 ,4,0,0.,12.0,0.,12.0,0.,12.0,0.,12.0
1979-07-04 15:08:18.290 ,4,0,0.,12.0,0.,12.0,0.,12.0,0.,12.0
1979-07-04 15:08:30.290 ,4,0,0.,12.0,0.,12.0,0.,12.0,0.,12.0
1979-07-04 15:08:42.290 ,4,0,0.,12.0,0.,12.0,0.,12.0,0.,12.0
1979-07-04 15:08:54.290 ,3,0,0.,12.0,0.,12.0,0.,12.0,0.,12.0
1979-07-04 15:09:06.290 ,3,0,0.,12.0,0.,12.0,0.,12.0,0.,12.0
1979-07-04 15:09:18.290 ,3,0,0.,12.0,0.,12.0,0.,12.0,0.,12.0
1979-07-04 15:09:30.290 ,3,0,0.,12.0,0.,12.0,0.,12.0,0.,12.0
1979-07-04 15:09:42.290 ,2,0,0.,12.0,0.,12.0,0.,12.0,0.,12.0
1979-07-04 15:09:54.290 ,2,0,0.,12.0,0.,12.0,0.,12.0,0.,12.0
1979-07-04 15:10:06.290 ,2,0,0.,12.0,0.,12.0,0.,12.0,0.,12.0
1979-07-04 15:10:18.290 ,2,0,0.,12.0,0.,12.0,0.,12.0,0.,12.0
1979-07-04 15:10:30.290 ,1,0,0.,12.0,0.,12.0,0.,12.0,0.,12.0
1979-07-04 15:10:42.290 ,1,0,0.,12.0,0.,12.0,0.,12.0,0.,12.0
1979-07-04 15:10:54.290 ,1,0,0.,12.0,0.,12.0,0.,12.0,0.,12.0
1979-07-04 15:11:06.290 ,1,0,0.,12.0,0.,12.0,0.,12.0,0.,12.0
1979-07-04 15:11:18.290 ,0,0,0.,12.0,0.,12.0,0.,12.0,0.,12.0
1979-07-04 15:11:30.290 ,0,0,0.,12.0,0.,12.0,0.,12.0,0.,12.0
1979-07-04 15:11:42.290 ,0,0,0.,12.0,0.,12.0,0.,12.0,0.,12.0
1979-07-04 15:11:54.290 ,0,0,0.,12.0,0.,12.0,0.,12.0,0.,12.0
1979-07-04 15:12:06.290 ,0,0,0.,12.0,0.,12.0,0.,12.0,0.,12.0
1979-07-04 15:12:18.290 ,0,0,0.,12.0,0.,12.0,0.,12.0,0.,12.0
1979-07-04 15:12:30.290 ,0,0,0.,12.0,0.,12.0,0.,12.0,0.,12.0
1979-07-04 15:12:42.290 ,0,0,0.,12.0,0.,12.0,0.,12.0,0.,12.0
1979-07-04 15:12:54.290 ,1,0,0.,12.0,0.,12.0,1.,12.0,0.,12.0
1979-07-04 15:13:06.290 ,1,0,0.,12.0,0.,12.0,0.,12.0,0.,12.0
1979-07-04 15:13:18.290 ,1,0,0.,12.0,0.,12.0,0.,12.0,0.,12.0
1979-07-04 15:13:30.290 ,1,0,0.,12.0,0.,12.0,0.,12.0,0.,12.0
1979-07-04 15:13:42.290 ,2,0,0.,12.0,0.,12.0,0.,12.0,0.,12.0
1979-07-04 15:13:54.290 ,2,0,0.,12.0,0.,12.0,0.,12.0,0.,12.0
1979-07-04 15:14:06.290 ,2,0,0.,12.0,0.,12.0,0.,12.0,0.,12.0
1979-07-04 15:14:18.290 ,2,0,0.,12.0,0.,12.0,0.,12.0,0.,12.0
1979-07-04 15:14:30.290 ,3,0,0.,12.0,0.,12.0,0.,12.0,0.,12.0
1979-07-04 15:14:42.290 ,3,0,0.,12.0,0.,12.0,0.,12.0,0.,12.0
1979-07-04 15:14:54.290 ,3,0,0.,12.0,0.,12.0,0.,12.0,0.,12.0
1979-07-04 15:15:06.290 ,3,0,0.,12.0,0.,12.0,0.,12.0,0.,12.0
1979-07-04 15:15:18.290 ,4,0,0.,12.0,0.,12.0,0.,12.0,0.,12.0
1979-07-04 15:15:30.290 ,4,0,0.,12.0,0.,12.0,0.,12.0,0.,12.0
1979-07-04 15:15:42.290 ,4,0,0.,12.0,0.,12.0,0.,12.0,0.,12.0
1979-07-04 15:15:54.290 ,4,0,0.,12.0,0.,12.0,0.,12.0,0.,12.0
1979-07-04 15:16:06.290 ,5,0,0.,12.0,0.,12.0,0.,12.0,0.,12.0
1979-07-04 15:16:18.290 ,5,0,0.,12.0,0.,12.0,0.,12.0,0.,12.0
1979-07-04 15:16:30.290 ,5,0,0.,12.0,0.,12.0,0.,12.0,0.,12.0
1979-07-04 15:16:42.290 ,5,0,0.,12.0,0.,12.0,0.,12.0,0.,12.0
1979-07-04 15:16:54.290 ,6,0,0.,12.0,0.,12.0,0.,12.0,0.,12.0
1979-07-04 15:17:06.290 ,6,0,0.,12.0,0.,12.0,0.,12.0,0.,12.0
1979-07-04 15:17:18.290 ,6,0,0.,12.0,0.,12.0,0.,12.0,0.,12.0
1979-07-04 15:17:30.290 ,6,0,0.,12.0,0.,12.0,0.,12.0,0.,12.0
1979-07-04 15:17:42.290 ,7,0,0.,12.0,0.,12.0,0.,12.0,0.,12.0
1979-07-04 15:17:54.290 ,7,0,0.,12.0,0.,12.0,0.,12.0,0.,12.0
1979-07-04 15:18:06.290 ,7,0,0.,12.0,0.,12.0,0.,12.0,0.,12.0
1979-07-04 15:18:18.290 ,7,0,0.,12.0,0.,12.0,0.,12.0,0.,12.0
1979-07-04 15:18:30.290 ,7,0,0.,12.0,0.,12.0,0.,12.0,0.,12.0
1979-07-04 15:18:42.290 ,7,0,0.,12.0,0.,12.0,0.,12.0,0.,12.0
1979-07-04 15:18:54.290 ,7,0,0.,12.0,0.,12.0,0.,12.0,0.,12.0
1979-07-04 15:19:06.290 ,7,0,0.,12.0,0.,12.0,0.,12.0,0.,12.0
1979-07-04 15:19:18.290 ,6,0,0.,12.0,0.,12.0,0.,12.0,0.,12.0
1979-07-04 15:19:30.290 ,6,0,0.,12.0,0.,12.0,0.,12.0,0.,12.0
1979-07-04 15:19:42.290 ,6,0,0.,12.0,0.,12.0,0.,12.0,0.,12.0
1979-07-04 15:19:54.290 ,6,0,0.,12.0,0.,12.0,0.,12.0,0.,12.0
1979-07-04 15:20:06.290 ,5,0,0.,12.0,0.,12.0,0.,12.0,0.,12.0
1979-07-04 15:20:18.290 ,5,0,0.,12.0,0.,12.0,0.,12.0,0.,12.0
1979-07-04 15:20:30.290 ,5,0,0.,12.0,0.,12.0,0.,12.0,0.,12.0
1979-07-04 15:20:42.290 ,5,0,0.,12.0,0.,12.0,0.,12.0,0.,12.0
1979-07-04 15:20:54.290 ,4,0,0.,12.0,0.,12.0,0.,12.0,0.,12.0
1979-07-04 15:21:06.290 ,4,0,0.,12.0,0.,12.0,0.,12.0,0.,12.0
1979-07-04 15:21:18.290 ,4,0,0.,12.0,0.,12.0,0.,12.0,0.,12.0
1979-07-04 15:21:30.290 ,4,0,0.,12.0,0.,12.0,0.,12.0,0.,12.0
1979-07-04 15:21:42.290 ,3,0,0.,12.0,0.,12.0,0.,12.0,0.,12.0
1979-07-04 15:21:54.290 ,3,0,0.,12.0,0.,12.0,0.,12.0,0.,12.0
1979-07-04 15:22:06.290 ,3,0,0.,12.0,0.,12.0,0.,12.0,0.,12.0
1979-07-04 15:22:18.290 ,3,0,0.,12.0,0.,12.0,0.,12.0,0.,12.0
1979-07-04 15:22:30.290 ,2,0,0.,12.0,0.,12.0,0.,12.0,0.,12.0
1979-07-04 15:22:42.290 ,2,0,0.,12.0,0.,12.0,0.,12.0,0.,12.0
1979-07-04 15:22:54.290 ,2,0,0.,12.0,0.,12.0,0.,12.0,0.,12.0
1979-07-04 15:23:06.290 ,2,0,0.,12.0,0.,12.0,0.,12.0,0.,12.0
1979-07-04 15:23:18.290 ,1,0,0.,12.0,0.,12.0,0.,12.0,0.,12.0
1979-07-04 15:23:30.290 ,1,0,0.,12.0,0.,12.0,0.,12.0,0.,12.0
1979-07-04 15:23:42.290 ,1,0,0.,12.0,0.,12.0,0.,12.0,0.,12.0
1979-07-04 15:23:54.290 ,1,0,0.,12.0,0.,12.0,0.,12.0,0.,12.0
1979-07-04 15:24:06.290 ,0,0,0.,12.0,0.,12.0,0.,12.0,0.,12.0
1979-07-04 15:24:18.290 ,0,0,0.,12.0,0.,12.0,0.,12.0,0.,12.0
1979-07-04 15:24:30.290 ,0,0,0.,12.0,0.,12.0,0.,12.0,0.,12.0
1979-07-04 15:24:42.290 ,0,0,0.,12.0,0.,12.0,0.,12.0,0.,12.0
1979-07-04 15:24:54.290 ,0,0,0.,12.0,0.,12.0,0.,12.0,0.,12.0
1979-07-04 15:25:06.290 ,0,0,0.,12.0,0.,12.0,0.,12.0,0.,12.0
1979-07-04 15:25:18.290 ,0,0,0.,12.0,0.,12.0,0.,12.0,0.,12.0
1979-07-04 15:25:30.290 ,0,0,0.,12.0,0.,12.0,0.,12.0,0.,12.0
1979-07-04 15:25:42.290 ,1,0,0.,12.0,0.,12.0,0.,12.0,0.,12.0
1979-07-04 15:25:54.290 ,1,0,0.,12.0,0.,12.0,0.,12.0,0.,12.0
1979-07-04 15:26:06.290 ,1,0,0.,12.0,0.,12.0,0.,12.0,0.,12.0
1979-07-04 15:26:18.290 ,1,0,0.,12.0,0.,12.0,0.,12.0,0.,12.0
1979-07-04 15:26:30.290 ,2,0,0.,12.0,0.,12.0,0.,12.0,0.,12.0
1979-07-04 15:26:42.290 ,2,0,0.,12.0,0.,12.0,0.,12.0,0.,12.0
1979-07-04 15:26:54.290 ,2,0,0.,12.0,0.,12.0,0.,12.0,0.,12.0
1979-07-04 15:27:06.290 ,2,0,0.,12.0,0.,12.0,0.,12.0,0.,12.0
1979-07-04 15:27:18.290 ,3,0,0.,12.0,0.,12.0,0.,12.0,0.,12.0
1979-07-04 15:27:30.290 ,3,0,0.,12.0,0.,12.0,0.,12.0,0.,12.0
1979-07-04 15:27:42.290 ,3,0,0.,12.0,0.,12.0,0.,12.0,0.,12.0
1979-07-04 15:27:54.290 ,3,0,0.,12.0,0.,12.0,0.,12.0,0.,12.0
1979-07-04 15:28:06.290 ,4,0,0.,12.0,0.,12.0,0.,12.0,0.,12.0
1979-07-04 15:28:18.290 ,4,0,0.,12.0,0.,12.0,0.,12.0,0.,12.0
1979-07-04 15:28:30.290 ,4,0,0.,12.0,0.,12.0,0.,12.0,0.,12.0
1979-07-04 15:28:42.290 ,4,0,0.,12.0,0.,12.0,0.,12.0,0.,12.0
1979-07-04 15:28:54.290 ,5,0,0.,12.0,0.,12.0,0.,12.0,0.,12.0
1979-07-04 15:29:06.290 ,5,0,0.,12.0,0.,12.0,0.,12.0,0.,12.0
1979-07-04 15:29:18.290 ,5,0,0.,12.0,0.,12.0,0.,12.0,0.,12.0
1979-07-04 15:29:30.290 ,5,0,0.,12.0,0.,12.0,0.,12.0,0.,12.0
1979-07-04 15:29:42.290 ,6,0,0.,12.0,0.,12.0,0.,12.0,0.,12.0
1979-07-04 15:29:54.290 ,6,0,0.,12.0,0.,12.0,0.,12.0,0.,12.0
1979-07-04 15:30:06.290 ,6,0,0.,12.0,0.,12.0,0.,12.0,0.,12.0
1979-07-04 15:30:18.290 ,6,0,0.,12.0,0.,12.0,0.,12.0,0.,12.0
1979-07-04 15:30:30.290 ,7,0,0.,12.0,0.,12.0,0.,12.0,0.,12.0
1979-07-04 15:30:42.290 ,7,0,0.,12.0,0.,12.0,0.,12.0,0.,12.0
1979-07-04 15:30:54.290 ,7,0,0.,12.0,0.,12.0,0.,12.0,0.,12.0
1979-07-04 15:31:06.290 ,7,0,0.,12.0,0.,12.0,0.,12.0,0.,12.0
1979-07-04 15:31:18.290 ,3,1,0.,12.0,0.,12.0,0.,12.0,0.,12.0
1979-07-04 15:31:30.290 ,3,1,0.,12.0,0.,12.0,0.,12.0,0.,12.0
1979-07-04 15:31:42.290 ,0,1,0.,12.0,0.,12.0,0.,12.0,0.,12.0
1979-07-04 15:31:54.290 ,0,1,0.,12.0,0.,12.0,0.,12.0,0.,12.0
1979-07-04 15:32:06.290 ,4,1,0.,12.0,0.,12.0,0.,12.0,0.,12.0
1979-07-04 15:32:18.290 ,4,1,0.,12.0,0.,12.0,0.,12.0,0.,12.0
1979-07-04 15:32:30.290 ,7,1,0.,12.0,0.,12.0,0.,12.0,0.,12.0
1979-07-04 15:32:42.290 ,7,1,0.,12.0,0.,12.0,0.,12.0,0.,12.0
1979-07-04 15:32:54.290 ,3,1,0.,12.0,0.,12.0,0.,12.0,0.,12.0
1979-07-04 15:33:06.290 ,3,1,0.,12.0,0.,12.0,0.,12.0,0.,12.0
1979-07-04 15:33:18.290 ,0,1,0.,12.0,0.,12.0,0.,12.0,0.,12.0
1979-07-04 15:33:30.290 ,0,1,1.,12.0,0.,12.0,0.,12.0,0.,12.0
1979-07-04 15:33:42.290 ,4,1,0.,12.0,0.,12.0,0.,12.0,0.,12.0
1979-07-04 15:33:54.290 ,4,1,0.,12.0,0.,12.0,0.,12.0,0.,12.0
1979-07-04 15:34:06.290 ,7,1,0.,12.0,0.,12.0,0.,12.0,0.,12.0
1979-07-04 15:34:18.290 ,7,1,0.,12.0,0.,12.0,0.,12.0,0.,12.0
1979-07-04 15:34:30.290 ,3,1,0.,12.0,0.,12.0,0.,12.0,0.,12.0
1979-07-04 15:34:42.290 ,3,1,0.,12.0,0.,12.0,0.,12.0,0.,12.0
1979-07-04 15:34:54.290 ,0,1,0.,12.0,0.,12.0,0.,12.0,0.,12.0
1979-07-04 15:35:06.290 ,0,1,0.,12.0,0.,12.0,0.,12.0,0.,12.0
1979-07-04 15:35:18.290 ,4,1,0.,12.0,0.,12.0,0.,12.0,0.,12.0
1979-07-04 15:35:30.290 ,4,1,0.,12.0,0.,12.0,0.,12.0,0.,12.0
1979-07-04 15:35:42.290 ,7,1,0.,12.0,0.,12.0,0.,12.0,0.,12.0
1979-07-04 15:35:54.290 ,7,1,0.,12.0,0.,12.0,0.,12.0,0.,12.0
1979-07-04 15:36:06.290 ,3,1,0.,12.0,0.,12.0,0.,12.0,0.,12.0
1979-07-04 15:36:18.290 ,3,1,0.,12.0,0.,12.0,0.,12.0,0.,12.0
1979-07-04 15:36:30.290 ,0,1,0.,12.0,0.,12.0,0.,12.0,0.,12.0
1979-07-04 15:36:42.290 ,0,1,0.,12.0,0.,12.0,0.,12.0,0.,12.0
1979-07-04 15:36:54.290 ,4,1,0.,12.0,0.,12.0,0.,12.0,0.,12.0
1979-07-04 15:37:06.290 ,4,1,0.,12.0,0.,12.0,0.,12.0,0.,12.0
1979-07-04 15:37:18.290 ,7,1,0.,12.0,0.,12.0,0.,12.0,0.,12.0
1979-07-04 15:37:30.290 ,7,1,0.,12.0,0.,12.0,0.,12.0,0.,12.0
1979-07-04 15:37:42.290 ,3,1,0.,12.0,0.,12.0,0.,12.0,0.,12.0
1979-07-04 15:37:54.290 ,3,1,0.,12.0,0.,12.0,0.,12.0,0.,12.0
1979-07-04 15:38:06.290 ,0,1,0.,12.0,0.,12.0,0.,12.0,0.,12.0
1979-07-04 15:38:18.290 ,0,1,0.,12.0,0.,12.0,0.,12.0,0.,12.0
1979-07-04 15:38:30.290 ,4,1,0.,12.0,0.,12.0,0.,12.0,0.,12.0
1979-07-04 15:38:42.290 ,4,1,0.,12.0,0.,12.0,0.,12.0,0.,12.0
1979-07-04 15:38:54.290 ,7,1,0.,12.0,0.,12.0,0.,12.0,0.,12.0
1979-07-04 15:39:06.290 ,7,1,0.,12.0,0.,12.0,0.,12.0,0.,12.0
1979-07-04 15:39:18.290 ,3,1,0.,12.0,0.,12.0,0.,12.0,0.,12.0
1979-07-04 15:39:30.290 ,3,1,0.,12.0,0.,12.0,0.,12.0,0.,12.0
1979-07-04 15:39:42.290 ,0,1,0.,12.0,0.,12.0,0.,12.0,0.,12.0
1979-07-04 15:39:54.290 ,0,1,0.,12.0,0.,12.0,0.,12.0,0.,12.0
1979-07-04 15:40:06.290 ,4,1,0.,12.0,0.,12.0,0.,12.0,0.,12.0
1979-07-04 15:40:18.290 ,4,1,0.,12.0,0.,12.0,0.,12.0,0.,12.0
1979-07-04 15:40:30.290 ,7,1,0.,12.0,0.,12.0,0.,12.0,0.,12.0
1979-07-04 15:40:42.290 ,7,1,0.,12.0,0.,12.0,0.,12.0,0.,12.0
1979-07-04 15:40:54.290 ,3,1,0.,12.0,0.,12.0,0.,12.0,0.,12.0
1979-07-04 15:41:06.290 ,3,1,0.,12.0,0.,12.0,0.,12.0,0.,12.0
1979-07-04 15:41:18.290 ,0,0,0.,12.0,0.,12.0,0.,12.0,0.,12.0
1979-07-04 15:41:30.290 ,0,0,0.,12.0,0.,12.0,0.,12.0,0.,12.0
1979-07-04 15:41:47.690 ,0,0,0.,12.0,0.,12.0,0.,12.0,0.,12.0
1979-07-04 15:41:59.690 ,0,0,0.,12.0,0.,12.0,0.,12.0,0.,12.0
1979-07-04 15:42:06.290 ,0,0,0.,12.0,0.,12.0,0.,12.0,0.,12.0
1979-07-04 15:42:18.290 ,0,0,0.,12.0,0.,12.0,0.,12.0,0.,12.0
1979-07-04 15:42:30.290 ,5,0,0.,12.0,0.,12.0,0.,12.0,0.,12.0
1979-07-04 15:42:42.290 ,5,0,0.,12.0,0.,12.0,0.,12.0,0.,12.0
1979-07-04 15:42:54.290 ,5,0,0.,12.0,0.,12.0,0.,12.0,0.,12.0
1979-07-04 15:43:06.290 ,5,0,0.,12.0,1.,12.0,0.,12.0,0.,12.0
1979-07-04 15:43:18.290 ,4,0,0.,12.0,0.,12.0,0.,12.0,0.,12.0
1979-07-04 15:43:30.290 ,4,0,0.,12.0,0.,12.0,0.,12.0,0.,12.0
1979-07-04 15:43:42.290 ,4,0,0.,12.0,0.,12.0,0.,12.0,0.,12.0
1979-07-04 15:43:54.290 ,4,0,0.,12.0,0.,12.0,0.,12.0,0.,12.0
1979-07-04 15:44:06.290 ,3,0,0.,12.0,0.,12.0,0.,12.0,0.,12.0
1979-07-04 15:44:18.290 ,3,0,0.,12.0,0.,12.0,0.,12.0,0.,12.0
1979-07-04 15:44:30.290 ,3,0,0.,12.0,0.,12.0,0.,12.0,0.,12.0
1979-07-04 15:44:42.290 ,3,0,0.,12.0,0.,12.0,0.,12.0,0.,12.0
1979-07-04 15:44:54.290 ,2,0,0.,12.0,0.,12.0,0.,12.0,0.,12.0
1979-07-04 15:45:06.290 ,2,0,0.,12.0,0.,12.0,0.,12.0,0.,12.0
1979-07-04 15:45:18.290 ,2,0,0.,12.0,0.,12.0,0.,12.0,0.,12.0
1979-07-04 15:45:30.290 ,2,0,0.,12.0,0.,12.0,0.,12.0,0.,12.0
1979-07-04 15:45:42.290 ,1,0,0.,12.0,0.,12.0,0.,12.0,0.,12.0
1979-07-04 15:45:54.290 ,1,0,0.,12.0,0.,12.0,0.,12.0,0.,12.0
1979-07-04 15:46:06.290 ,1,0,0.,12.0,0.,12.0,0.,12.0,0.,12.0
1979-07-04 15:46:18.290 ,1,0,0.,12.0,0.,12.0,0.,12.0,0.,12.0
1979-07-04 15:46:30.290 ,0,0,0.,12.0,0.,12.0,0.,12.0,0.,12.0
1979-07-04 15:46:42.290 ,0,0,0.,12.0,0.,12.0,0.,12.0,0.,12.0
1979-07-04 15:46:54.290 ,0,0,0.,12.0,0.,12.0,0.,12.0,0.,12.0
1979-07-04 15:47:06.290 ,0,0,0.,12.0,0.,12.0,0.,12.0,0.,12.0
1979-07-04 15:47:18.290 ,0,0,0.,12.0,0.,12.0,0.,12.0,0.,12.0
1979-07-04 15:47:30.290 ,0,0,0.,12.0,0.,12.0,0.,12.0,0.,12.0
1979-07-04 15:47:42.290 ,0,0,0.,12.0,0.,12.0,0.,12.0,0.,12.0
1979-07-04 15:47:54.290 ,0,0,0.,12.0,0.,12.0,0.,12.0,0.,12.0
1979-07-04 15:48:06.290 ,1,0,0.,12.0,0.,12.0,0.,12.0,0.,12.0
1979-07-04 15:48:18.290 ,1,0,0.,12.0,0.,12.0,0.,12.0,0.,12.0
1979-07-04 15:48:30.290 ,1,0,0.,12.0,0.,12.0,0.,12.0,0.,12.0
1979-07-04 15:48:42.290 ,1,0,0.,12.0,0.,12.0,0.,12.0,0.,12.0
1979-07-04 15:48:54.290 ,2,0,0.,12.0,0.,12.0,0.,12.0,0.,12.0
1979-07-04 15:49:06.290 ,2,0,0.,12.0,0.,12.0,0.,12.0,0.,12.0
1979-07-04 15:49:18.290 ,2,0,0.,12.0,0.,12.0,0.,12.0,0.,12.0
1979-07-04 15:49:30.290 ,2,0,0.,12.0,0.,12.0,0.,12.0,0.,12.0
1979-07-04 15:49:42.290 ,3,0,0.,12.0,0.,12.0,0.,12.0,0.,12.0
1979-07-04 15:49:54.290 ,3,0,0.,12.0,0.,12.0,0.,12.0,0.,12.0
1979-07-04 15:50:06.290 ,3,0,0.,12.0,0.,12.0,0.,12.0,0.,12.0
1979-07-04 15:50:18.290 ,3,0,0.,12.0,0.,12.0,0.,12.0,0.,12.0
1979-07-04 15:50:30.290 ,4,0,0.,12.0,0.,12.0,0.,12.0,0.,12.0
1979-07-04 15:50:42.290 ,4,0,0.,12.0,0.,12.0,0.,12.0,0.,12.0
1979-07-04 15:50:54.290 ,4,0,0.,12.0,0.,12.0,0.,12.0,0.,12.0
1979-07-04 15:51:06.290 ,4,0,0.,12.0,0.,12.0,0.,12.0,0.,12.0
1979-07-04 15:51:18.290 ,5,0,0.,12.0,0.,12.0,0.,12.0,0.,12.0
1979-07-04 15:51:30.290 ,5,0,0.,12.0,0.,12.0,0.,12.0,0.,12.0
1979-07-04 15:51:42.290 ,5,0,0.,12.0,0.,12.0,0.,12.0,0.,12.0
1979-07-04 15:51:54.290 ,5,0,0.,12.0,0.,12.0,0.,12.0,0.,12.0
1979-07-04 15:52:06.290 ,6,0,0.,12.0,0.,12.0,0.,12.0,0.,12.0
1979-07-04 15:52:18.290 ,6,0,0.,12.0,0.,12.0,0.,12.0,0.,12.0
1979-07-04 15:52:30.290 ,6,0,0.,12.0,0.,12.0,0.,12.0,0.,12.0
1979-07-04 15:52:42.290 ,6,0,0.,12.0,0.,12.0,0.,12.0,0.,12.0
1979-07-04 15:52:54.290 ,7,0,0.,12.0,0.,12.0,0.,12.0,0.,12.0
1979-07-04 15:53:06.290 ,7,0,0.,12.0,0.,12.0,0.,12.0,0.,12.0
1979-07-04 15:53:18.290 ,7,0,0.,12.0,0.,12.0,0.,12.0,0.,12.0
1979-07-04 15:53:30.290 ,7,0,0.,12.0,0.,12.0,0.,12.0,0.,12.0
1979-07-04 15:53:42.290 ,7,0,0.,12.0,0.,12.0,0.,12.0,0.,12.0
1979-07-04 15:53:54.290 ,7,0,0.,12.0,0.,12.0,0.,12.0,0.,12.0
1979-07-04 15:54:06.290 ,7,0,0.,12.0,0.,12.0,0.,12.0,0.,12.0
1979-07-04 15:54:18.290 ,7,0,0.,12.0,0.,12.0,0.,12.0,0.,12.0
1979-07-04 15:54:30.290 ,6,0,0.,12.0,0.,12.0,0.,12.0,0.,12.0
1979-07-04 15:54:42.290 ,6,0,0.,12.0,0.,12.0,0.,12.0,0.,12.0
1979-07-04 15:54:54.290 ,6,0,0.,12.0,0.,12.0,0.,12.0,0.,12.0
1979-07-04 15:55:06.290 ,6,0,0.,12.0,0.,12.0,0.,12.0,0.,12.0
1979-07-04 15:55:18.290 ,5,0,0.,12.0,0.,12.0,0.,12.0,0.,12.0
1979-07-04 15:55:30.290 ,5,0,0.,12.0,0.,12.0,0.,12.0,0.,12.0
1979-07-04 15:55:42.290 ,5,0,0.,12.0,0.,12.0,0.,12.0,0.,12.0
1979-07-04 15:55:54.290 ,5,0,0.,12.0,0.,12.0,0.,12.0,0.,12.0
1979-07-04 15:56:06.290 ,4,0,0.,12.0,0.,12.0,0.,12.0,0.,12.0
1979-07-04 15:56:18.290 ,4,0,0.,12.0,0.,12.0,0.,12.0,0.,12.0
1979-07-04 15:56:30.290 ,4,0,0.,12.0,0.,12.0,0.,12.0,0.,12.0
1979-07-04 15:56:42.290 ,4,0,0.,12.0,0.,12.0,0.,12.0,0.,12.0
1979-07-04 15:56:54.290 ,3,0,0.,12.0,0.,12.0,0.,12.0,0.,12.0
1979-07-04 15:57:06.290 ,3,0,0.,12.0,0.,12.0,0.,12.0,0.,12.0
1979-07-04 15:57:18.290 ,3,0,0.,12.0,0.,12.0,0.,12.0,0.,12.0
1979-07-04 15:57:30.290 ,3,0,0.,12.0,0.,12.0,0.,12.0,0.,12.0
1979-07-04 15:57:42.290 ,2,0,0.,12.0,0.,12.0,0.,12.0,0.,12.0
1979-07-04 15:57:54.290 ,2,0,0.,12.0,0.,12.0,0.,12.0,0.,12.0
1979-07-04 15:58:06.290 ,2,0,0.,12.0,0.,12.0,0.,12.0,0.,12.0
1979-07-04 15:58:18.290 ,2,0,0.,12.0,0.,12.0,0.,12.0,0.,12.0
1979-07-04 15:58:30.290 ,1,0,0.,12.0,0.,12.0,0.,12.0,0.,12.0
1979-07-04 15:58:42.290 ,1,0,0.,12.0,0.,12.0,0.,12.0,0.,12.0
1979-07-04 15:58:54.290 ,1,0,0.,12.0,0.,12.0,0.,12.0,0.,12.0
1979-07-04 15:59:06.290 ,1,0,0.,12.0,0.,12.0,0.,12.0,0.,12.0
1979-07-04 15:59:18.290 ,0,0,0.,12.0,0.,12.0,0.,12.0,0.,12.0
1979-07-04 15:59:30.290 ,0,0,0.,12.0,0.,12.0,0.,12.0,0.,12.0
1979-07-04 15:59:42.290 ,0,0,0.,12.0,0.,12.0,0.,12.0,0.,12.0
1979-07-04 15:59:54.290 ,0,0,0.,12.0,0.,12.0,0.,12.0,0.,12.0
1979-07-04 16:00:06.290 ,0,0,0.,12.0,0.,12.0,0.,12.0,0.,12.0
1979-07-04 16:00:18.290 ,0,0,0.,12.0,0.,12.0,0.,12.0,0.,12.0
1979-07-04 16:00:30.290 ,0,0,0.,12.0,0.,12.0,0.,12.0,0.,12.0
1979-07-04 16:00:42.290 ,0,0,0.,12.0,0.,12.0,0.,12.0,0.,12.0
1979-07-04 16:00:54.290 ,1,0,0.,12.0,0.,12.0,0.,12.0,0.,12.0
1979-07-04 16:01:06.290 ,1,0,0.,12.0,0.,12.0,0.,12.0,0.,12.0
1979-07-04 16:01:18.290 ,1,0,0.,12.0,0.,12.0,0.,12.0,0.,12.0
1979-07-04 16:01:30.290 ,1,0,0.,12.0,0.,12.0,0.,12.0,0.,12.0
1979-07-04 16:01:42.290 ,2,0,0.,12.0,0.,12.0,0.,12.0,0.,12.0
1979-07-04 16:01:54.290 ,2,0,0.,12.0,0.,12.0,0.,12.0,0.,12.0
1979-07-04 16:02:06.290 ,2,0,0.,12.0,0.,12.0,0.,12.0,0.,12.0
1979-07-04 16:02:18.290 ,2,0,0.,12.0,0.,12.0,0.,12.0,0.,12.0
1979-07-04 16:02:30.290 ,3,0,0.,12.0,0.,12.0,0.,12.0,0.,12.0
1979-07-04 16:02:42.290 ,3,0,0.,12.0,0.,12.0,0.,12.0,0.,12.0
1979-07-04 16:02:54.290 ,3,0,1.,12.0,0.,12.0,0.,12.0,0.,12.0
1979-07-04 16:03:06.290 ,3,0,0.,12.0,0.,12.0,0.,12.0,0.,12.0
1979-07-04 16:03:18.290 ,4,0,0.,12.0,0.,12.0,0.,12.0,0.,12.0
1979-07-04 16:03:30.290 ,4,0,0.,12.0,0.,12.0,0.,12.0,0.,12.0
1979-07-04 16:03:42.290 ,0,0,0.,12.0,0.,12.0,0.,12.0,0.,12.0
1979-07-04 16:03:54.290 ,0,0,0.,12.0,0.,12.0,0.,12.0,0.,12.0
1979-07-04 16:04:04.490 ,0,0,,0,,0,,0,,0
1979-07-04 16:04:16.490 ,0,0,,0,,0,,0,,0
1979-07-04 16:04:06.290 ,5,0,0.,12.0,0.,12.0,0.,12.0,0.,12.0
1979-07-04 16:04:18.290 ,5,0,0.,12.0,0.,12.0,0.,12.0,0.,12.0
1979-07-04 16:04:30.290 ,5,0,0.,12.0,0.,12.0,0.,12.0,0.,12.0
1979-07-04 16:04:42.290 ,5,0,0.,12.0,0.,12.0,0.,12.0,0.,12.0
1979-07-04 16:04:54.290 ,6,0,0.,12.0,0.,12.0,0.,12.0,0.,12.0
1979-07-04 16:05:06.290 ,6,0,0.,12.0,0.,12.0,0.,12.0,0.,12.0
1979-07-04 16:05:18.290 ,6,0,0.,12.0,0.,12.0,0.,12.0,0.,12.0
1979-07-04 16:05:30.290 ,6,0,0.,12.0,0.,12.0,0.,12.0,0.,12.0
1979-07-04 16:05:42.290 ,7,0,0.,12.0,0.,12.0,0.,12.0,0.,12.0
1979-07-04 16:05:54.290 ,7,0,0.,12.0,0.,12.0,0.,12.0,0.,12.0
1979-07-04 16:06:06.290 ,0,0,0.,12.0,0.,12.0,0.,12.0,0.,12.0
1979-07-04 16:06:18.290 ,0,0,0.,12.0,0.,12.0,0.,12.0,0.,12.0
1979-07-04 16:06:32.090 ,7,0,0.,12.0,0.,12.0,0.,12.0,0.,12.0
1979-07-04 16:06:44.090 ,7,0,0.,12.0,0.,12.0,0.,12.0,0.,12.0
1979-07-04 16:06:54.290 ,7,0,0.,12.0,0.,12.0,0.,12.0,0.,12.0
1979-07-04 16:07:06.290 ,7,0,0.,12.0,0.,12.0,0.,12.0,0.,12.0
1979-07-04 16:07:18.290 ,6,0,0.,12.0,0.,12.0,0.,12.0,0.,12.0
1979-07-04 16:07:30.290 ,6,0,0.,12.0,0.,12.0,0.,12.0,0.,12.0
1979-07-04 16:07:42.290 ,6,0,0.,12.0,0.,12.0,0.,12.0,0.,12.0
1979-07-04 16:07:54.290 ,6,0,0.,12.0,0.,12.0,0.,12.0,0.,12.0
1979-07-04 16:08:06.290 ,5,0,0.,12.0,0.,12.0,0.,12.0,0.,12.0
1979-07-04 16:08:18.290 ,5,0,0.,12.0,0.,12.0,0.,12.0,0.,12.0
1979-07-04 16:08:30.290 ,5,0,0.,12.0,0.,12.0,0.,12.0,0.,12.0
1979-07-04 16:08:42.290 ,5,0,0.,12.0,0.,12.0,0.,12.0,0.,12.0
1979-07-04 16:08:54.290 ,4,0,0.,12.0,0.,12.0,0.,12.0,0.,12.0
1979-07-04 16:09:06.290 ,4,0,0.,12.0,0.,12.0,0.,12.0,0.,12.0
1979-07-04 16:09:18.290 ,4,0,0.,12.0,0.,12.0,0.,12.0,0.,12.0
1979-07-04 16:09:30.290 ,4,0,0.,12.0,0.,12.0,0.,12.0,0.,12.0
1979-07-04 16:09:42.290 ,3,0,0.,12.0,0.,12.0,0.,12.0,0.,12.0
1979-07-04 16:09:54.290 ,3,0,0.,12.0,0.,12.0,0.,12.0,0.,12.0
1979-07-04 16:10:06.290 ,3,0,0.,12.0,0.,12.0,0.,12.0,0.,12.0
1979-07-04 16:10:18.290 ,3,0,0.,12.0,0.,12.0,0.,12.0,0.,12.0
1979-07-04 16:10:30.290 ,2,0,0.,12.0,0.,12.0,0.,12.0,0.,12.0
1979-07-04 16:10:42.290 ,2,0,0.,12.0,0.,12.0,0.,12.0,0.,12.0
1979-07-04 16:10:54.290 ,2,0,0.,12.0,0.,12.0,0.,12.0,0.,12.0
1979-07-04 16:11:06.290 ,2,0,0.,12.0,0.,12.0,0.,12.0,0.,12.0
1979-07-04 16:11:18.290 ,1,0,0.,12.0,0.,12.0,0.,12.0,0.,12.0
1979-07-04 16:11:30.290 ,1,0,0.,12.0,0.,12.0,0.,12.0,0.,12.0
1979-07-04 16:11:42.290 ,1,0,0.,12.0,0.,12.0,0.,12.0,0.,12.0
1979-07-04 16:11:54.290 ,1,0,0.,12.0,0.,12.0,0.,12.0,0.,12.0
1979-07-04 16:12:06.290 ,0,0,0.,12.0,0.,12.0,0.,12.0,0.,12.0
1979-07-04 16:12:18.290 ,0,0,0.,12.0,0.,12.0,0.,12.0,0.,12.0
1979-07-04 16:12:30.290 ,0,0,0.,12.0,0.,12.0,0.,12.0,0.,12.0
1979-07-04 16:12:42.290 ,0,0,0.,12.0,0.,12.0,0.,12.0,0.,12.0
1979-07-04 16:12:54.290 ,0,0,0.,12.0,0.,12.0,0.,12.0,0.,12.0
1979-07-04 16:13:06.290 ,0,0,0.,12.0,0.,12.0,0.,12.0,0.,12.0
1979-07-04 16:13:18.290 ,0,0,0.,12.0,0.,12.0,0.,12.0,0.,12.0
1979-07-04 16:13:30.290 ,0,0,0.,12.0,0.,12.0,0.,12.0,0.,12.0
1979-07-04 16:13:42.290 ,1,0,0.,12.0,0.,12.0,0.,12.0,0.,12.0
1979-07-04 16:13:54.290 ,1,0,0.,12.0,0.,12.0,0.,12.0,0.,12.0
1979-07-04 16:14:06.290 ,1,0,0.,12.0,0.,12.0,0.,12.0,0.,12.0
1979-07-04 16:14:18.290 ,1,0,0.,12.0,0.,12.0,0.,12.0,0.,12.0
1979-07-04 16:14:30.290 ,2,0,0.,12.0,0.,12.0,0.,12.0,0.,12.0
1979-07-04 16:14:42.290 ,2,0,0.,12.0,0.,12.0,0.,12.0,0.,12.0
1979-07-04 16:14:54.290 ,2,0,0.,12.0,0.,12.0,0.,12.0,0.,12.0
1979-07-04 16:15:06.290 ,2,0,0.,12.0,0.,12.0,0.,12.0,0.,12.0
1979-07-04 16:15:18.290 ,3,0,0.,12.0,0.,12.0,0.,12.0,0.,12.0
1979-07-04 16:15:30.290 ,3,0,0.,12.0,0.,12.0,0.,12.0,0.,12.0
1979-07-04 16:15:42.290 ,3,0,0.,12.0,0.,12.0,0.,12.0,0.,12.0
1979-07-04 16:15:54.290 ,3,0,0.,12.0,0.,12.0,0.,12.0,0.,12.0
1979-07-04 16:16:06.290 ,4,0,0.,12.0,0.,12.0,0.,12.0,0.,12.0
1979-07-04 16:16:18.290 ,4,0,0.,12.0,0.,12.0,0.,12.0,0.,12.0
1979-07-04 16:16:30.290 ,4,0,0.,12.0,0.,12.0,0.,12.0,0.,12.0
1979-07-04 16:16:42.290 ,4,0,0.,12.0,0.,12.0,0.,12.0,0.,12.0
1979-07-04 16:16:54.290 ,5,0,0.,12.0,0.,12.0,0.,12.0,0.,12.0
1979-07-04 16:17:06.290 ,5,0,0.,12.0,0.,12.0,0.,12.0,0.,12.0